When you browse on this site, cookies collect data to enhance your experience and personalize the content and advertising you see.
Visit our Privacy Policy to learn more. By continuing to use the site, you agree to this use of cookies and data.
  • In Austria
  • List of Countries
  • For 7 days
  • Water Temperature
  • Weather Map
  • News
  • Weather Widgets
  • user-avatar
    Login

    Hourly Weather Tarija

    Today, 15 October, Tuesday

    Time Temperature Precipitation Wind Pressure Humidity
    00:00 +15°C° 0 mm 1 mps 599 mmHg 91%
    01:00 +15°C° 0 mm 1 mps 598 mmHg 92%
    02:00 +14°C° 0 mm 1 mps 598 mmHg 93%
    03:00 +14°C° 0 mm 1 mps 598 mmHg 92%
    04:00 +14°C° 0 mm 1 mps 598 mmHg 92%
    05:00 +14°C° 0 mm 1 mps 598 mmHg 91%
    06:00 +15°C° 0 mm 1 mps 599 mmHg 88%
    07:00 +15°C° 0 mm 1 mps 599 mmHg 85%
    08:00 +15°C° 0 mm 2 mps 600 mmHg 82%
    09:00 +17°C° 0 mm 2 mps 600 mmHg 76%
    10:00 +18°C° 0 mm 2 mps 600 mmHg 70%
    11:00 +19°C° 0 mm 2 mps 600 mmHg 65%
    12:00 +20°C° 0 mm 3 mps 600 mmHg 63%
    13:00 +20°C° 0 mm 3 mps 599 mmHg 61%
    14:00 +21°C° 0 mm 3 mps 599 mmHg 60%
    15:00 +20°C° 0 mm 3 mps 598 mmHg 64%
    16:00 +19°C° 0 mm 3 mps 597 mmHg 68%
    17:00 +18°C° 0 mm 3 mps 596 mmHg 72%
    18:00 +17°C° 0 mm 2 mps 597 mmHg 75%
    19:00 +16°C° 0 mm 2 mps 597 mmHg 78%
    20:00 +15°C° 0 mm 2 mps 597 mmHg 81%
    21:00 +15°C° 0 mm 1 mps 597 mmHg 82%
    22:00 +15°C° 0 mm 1 mps 598 mmHg 82%
    23:00 +15°C° 0 mm 1 mps 598 mmHg 83%

    Tomorrow, 16 October, Wednesday

    Time Temperature Precipitation Wind Pressure Humidity
    00:00 +14°C° 0 mm 1 mps 598 mmHg 84%
    01:00 +14°C° 0 mm 1 mps 598 mmHg 85%
    02:00 +14°C° 0 mm 1 mps 598 mmHg 85%
    03:00 +14°C° 0 mm 1 mps 598 mmHg 86%
    04:00 +14°C° 0 mm 1 mps 598 mmHg 86%
    05:00 +14°C° 0 mm 1 mps 598 mmHg 86%
    06:00 +14°C° 0 mm 1 mps 598 mmHg 83%
    07:00 +15°C° 0 mm 1 mps 599 mmHg 81%
    08:00 +16°C° 0 mm 1 mps 599 mmHg 78%
    09:00 +18°C° 0 mm 1 mps 599 mmHg 70%
    10:00 +19°C° 0 mm 2 mps 600 mmHg 63%
    11:00 +21°C° 0 mm 2 mps 600 mmHg 55%
    12:00 +22°C° 0 mm 3 mps 599 mmHg 53%
    13:00 +24°C° 0 mm 3 mps 599 mmHg 51%
    14:00 +25°C° 0 mm 4 mps 598 mmHg 49%
    15:00 +22°C° 0 mm 4 mps 597 mmHg 54%
    16:00 +21°C° 0 mm 4 mps 596 mmHg 60%
    17:00 +20°C° 0 mm 4 mps 595 mmHg 65%
    18:00 +19°C° 0 mm 3 mps 595 mmHg 69%
    19:00 +18°C° 0 mm 3 mps 596 mmHg 73%
    20:00 +17°C° 0 mm 3 mps 596 mmHg 76%
    21:00 +17°C° 0 mm 2 mps 596 mmHg 78%
    22:00 +17°C° 0 mm 2 mps 596 mmHg 79%
    23:00 +16°C° 0 mm 2 mps 597 mmHg 81%

    Day after tomorrow, 17 October, Thursday

    Time Temperature Precipitation Wind Pressure Humidity
    00:00 +16°C° 0 mm 2 mps 597 mmHg 81%
    01:00 +16°C° 0 mm 2 mps 596 mmHg 82%
    02:00 +16°C° 0 mm 2 mps 596 mmHg 82%
    03:00 +16°C° 0 mm 2 mps 596 mmHg 83%
    04:00 +16°C° 0 mm 2 mps 596 mmHg 84%
    05:00 +15°C° 0 mm 2 mps 596 mmHg 86%
    06:00 +16°C° 0 mm 2 mps 597 mmHg 80%
    07:00 +17°C° 0 mm 2 mps 597 mmHg 75%
    08:00 +18°C° 0 mm 2 mps 598 mmHg 69%
    09:00 +20°C° 0 mm 3 mps 598 mmHg 61%
    10:00 +22°C° 0 mm 3 mps 599 mmHg 52%
    11:00 +25°C° 0 mm 3 mps 599 mmHg 44%
    12:00 +25°C° 0 mm 4 mps 598 mmHg 44%
    13:00 +26°C° 0 mm 4 mps 598 mmHg 43%
    14:00 +26°C° 0 mm 5 mps 598 mmHg 43%
    15:00 +25°C° 0 mm 4 mps 597 mmHg 52%
    16:00 +22°C° 0 mm 4 mps 596 mmHg 61%
    17:00 +20°C° 0 mm 3 mps 595 mmHg 70%
    18:00 +20°C° 0.1 mm 3 mps 595 mmHg 73%
    19:00 +19°C° 0.1 mm 2 mps 596 mmHg 77%
    20:00 +18°C° 0.1 mm 2 mps 596 mmHg 80%
    21:00 +18°C° 0.1 mm 2 mps 597 mmHg 82%
    22:00 +18°C° 0.1 mm 2 mps 597 mmHg 83%
    23:00 +19°C° 0.1 mm 1 mps 597 mmHg 84%

    18 October, Friday

    Time Temperature Precipitation Wind Pressure Humidity
    00:00 +18°C° 0.1 mm 1 mps 597 mmHg 85%
    01:00 +18°C° 0.1 mm 1 mps 597 mmHg 87%
    02:00 +18°C° 0.1 mm 1 mps 597 mmHg 89%
    03:00 +18°C° 0.1 mm 1 mps 597 mmHg 89%
    04:00 +16°C° 0.1 mm 2 mps 597 mmHg 90%
    05:00 +16°C° 0.1 mm 2 mps 597 mmHg 90%
    06:00 +16°C° 0.1 mm 2 mps 597 mmHg 90%
    07:00 +16°C° 0.1 mm 2 mps 598 mmHg 91%
    08:00 +16°C° 0.1 mm 2 mps 598 mmHg 91%
    09:00 +16°C° 0.1 mm 2 mps 598 mmHg 89%
    10:00 +16°C° 0.1 mm 2 mps 598 mmHg 87%
    11:00 +16°C° 0.1 mm 2 mps 598 mmHg 85%
    12:00 +17°C° 0.1 mm 2 mps 597 mmHg 84%
    13:00 +17°C° 0.1 mm 2 mps 597 mmHg 83%
    14:00 +17°C° 0.1 mm 2 mps 596 mmHg 82%
    15:00 +16°C° 0 mm 2 mps 596 mmHg 84%
    16:00 +16°C° 0 mm 2 mps 595 mmHg 86%
    17:00 +16°C° 0 mm 2 mps 595 mmHg 88%
    18:00 +15°C° 0.2 mm 2 mps 595 mmHg 89%
    19:00 +15°C° 0.2 mm 1 mps 596 mmHg 89%
    20:00 +15°C° 0.2 mm 1 mps 596 mmHg 90%
    21:00 +15°C° 0.1 mm 1 mps 596 mmHg 91%
    22:00 +14°C° 0.1 mm 1 mps 597 mmHg 91%
    23:00 +14°C° 0.1 mm 2 mps 597 mmHg 92%

    19 October, Saturday

    Time Temperature Precipitation Wind Pressure Humidity
    00:00 +14°C° 0.2 mm 2 mps 597 mmHg 92%
    01:00 +14°C° 0.2 mm 2 mps 597 mmHg 93%
    02:00 +14°C° 0.2 mm 1 mps 597 mmHg 93%
    03:00 +14°C° 2.3 mm 1 mps 597 mmHg 94%
    04:00 +13°C° 2.3 mm 1 mps 597 mmHg 94%
    05:00 +13°C° 2.3 mm 1 mps 597 mmHg 95%
    06:00 +13°C° 0.3 mm 1 mps 597 mmHg 94%
    07:00 +14°C° 0.3 mm 1 mps 598 mmHg 93%
    08:00 +14°C° 0.3 mm 1 mps 598 mmHg 92%
    09:00 +15°C° 0 mm 1 mps 598 mmHg 86%
    10:00 +16°C° 0 mm 1 mps 598 mmHg 81%
    11:00 +18°C° 0 mm 1 mps 598 mmHg 76%
    12:00 +18°C° 0 mm 2 mps 597 mmHg 74%
    13:00 +18°C° 0 mm 2 mps 597 mmHg 72%
    14:00 +19°C° 0 mm 3 mps 596 mmHg 71%
    15:00 +18°C° 0 mm 3 mps 596 mmHg 75%
    16:00 +17°C° 0 mm 3 mps 595 mmHg 78%
    17:00 +16°C° 0 mm 2 mps 594 mmHg 82%
    18:00 +16°C° 0 mm 2 mps 594 mmHg 84%
    19:00 +15°C° 0 mm 2 mps 595 mmHg 86%
    20:00 +15°C° 0 mm 2 mps 595 mmHg 88%
    21:00 +15°C° 0 mm 1 mps 595 mmHg 88%
    22:00 +15°C° 0 mm 1 mps 595 mmHg 88%
    23:00 +15°C° 0 mm 1 mps 596 mmHg 88%

    20 October, Sunday

    Time Temperature Precipitation Wind Pressure Humidity
    00:00 +15°C° 0 mm 1 mps 596 mmHg 88%
    01:00 +15°C° 0 mm 1 mps 595 mmHg 87%
    02:00 +15°C° 0 mm 1 mps 595 mmHg 87%
    03:00 +15°C° 0 mm 1 mps 595 mmHg 88%
    04:00 +15°C° 0 mm 1 mps 595 mmHg 88%
    05:00 +14°C° 0 mm 1 mps 595 mmHg 88%
    06:00 +15°C° 0 mm 2 mps 596 mmHg 82%
    07:00 +16°C° 0 mm 2 mps 596 mmHg 76%
    08:00 +16°C° 0 mm 3 mps 596 mmHg 70%
    09:00 +19°C° 0 mm 4 mps 597 mmHg 60%
    10:00 +21°C° 0 mm 4 mps 597 mmHg 50%
    11:00 +23°C° 0 mm 5 mps 597 mmHg 39%
    12:00 +23°C° 0 mm 6 mps 597 mmHg 40%
    13:00 +24°C° 0 mm 6 mps 596 mmHg 40%
    14:00 +24°C° 0 mm 6 mps 596 mmHg 40%
    15:00 +23°C° 0 mm 5 mps 595 mmHg 47%
    16:00 +21°C° 0 mm 4 mps 594 mmHg 53%
    17:00 +20°C° 0 mm 4 mps 593 mmHg 59%
    18:00 +19°C° 0 mm 3 mps 594 mmHg 67%
    19:00 +18°C° 0 mm 3 mps 594 mmHg 74%
    20:00 +17°C° 0 mm 2 mps 594 mmHg 82%
    21:00 +16°C° 0 mm 2 mps 595 mmHg 83%
    22:00 +16°C° 0 mm 1 mps 596 mmHg 84%
    23:00 +16°C° 0 mm 1 mps 596 mmHg 84%
    Show more